Cloud_Cover
0 0 0 0 2 51 100 83 100 98 99 100 94 97 88 100 100 99 100 95 94 100 100 100 100 100 100 100 100 100 100 100 100 100 100 100 100 100 100 98 98 65 65
2 0 1 2 4 67 83 23 46 98 92 100 100 100 100 100 100 100 100 100 100 100 100 100 100 100 100 100 100 100 100 100 100 100 100 100 94 100 100 93 65 23 24
1 3 1 2 81 100 100 98 96 37 8 99 75 69 99 99 100 100 100 100 100 100 99 100 100 100 100 100 100 100 100 100 100 100 84 100 100 100 99 72 22 76 30
4 0 0 0 1 49 96 100 91 95 100 100 86 84 63 86 84 100 100 100 94 100 100 100 100 100 100 100 100 100 100 100 100 100 100 100 100 100 72 63 58 25 88
5 5 5 0 0 0 2 74 98 91 100 100 100 100 98 84 90 97 100 100 100 99 100 100 100 100 100 100 100 100 100 100 100 100 100 100 100 94 80 91 82 100 100
5 5 5 5 5 0 0 0 0 0 6 93 100 100 100 100 100 100 100 100 100 100 100 100 100 100 100 100 100 100 100 100 100 100 100 100 99 70 87 99 97 85 58
33 98 26 5 11 6 31 5 5 3 29 64 89 98 100 100 100 100 100 100 100 100 100 100 100 100 100 100 100 100 100 100 100 100 100 100 90 97 94 84 80 78 84
39 99 100 97 67 27 48 46 72 98 100 98 100 100 100 100 100 100 100 100 100 100 100 100 100 100 100 100 100 100 100 100 100 100 92 78 86 71 30 89 42 100 64
100 63 84 65 100 100 100 100 100 100 100 100 100 100 100 100 100 100 100 100 100 100 100 100 100 100 100 100 100 100 100 100 100 100 100 97 65 71 96 99 100 68 38
100 100 99 52 100 100 100 100 100 100 100 100 100 100 100 100 100 100 100 100 100 100 100 100 100 100 100 100 100 100 100 100 100 100 100 98 94 88 88 77 76 48 32
100 100 100 100 100 100 100 100 100 100 100 100 100 100 100 100 100 100 100 100 100 100 100 100 100 100 100 100 100 100 100 100 100 99 92 99 100 100 76 59 60 47 96
100 100 100 100 100 100 100 100 100 100 100 100 100 100 100 100 100 100 100 100 100 100 100 100 100 100 100 100 100 100 100 100 100 100 100 100 100 100 100 98 97 94 91
100 100 100 100 100 100 100 100 100 100 100 100 100 100 100 100 100 100 100 100 100 100 100 100 100 100 100 100 100 100 100 100 100 100 100 100 100 100 100 100 100 100 100
100 100 100 100 100 100 100 100 100 100 100 100 100 100 100 100 100 100 100 100 100 100 100 100 100 100 100 100 100 100 100 100 100 100 100 100 100 100 100 100 100 100 100
100 100 100 100 100 100 100 100 100 100 100 100 100 100 100 100 100 100 100 100 100 100 100 100 100 100 100 100 100 100 100 100 99 100 100 100 100 100 100 100 100 100 100
100 100 100 100 100 100 100 100 100 100 100 100 100 100 100 100 100 100 100 100 100 100 100 100 100 100 100 100 100 100 100 100 100 100 100 100 100 100 100 100 100 100 100
100 100 100 100 100 100 100 100 100 100 100 100 100 100 100 100 100 100 100 100 100 100 100 100 100 100 100 100 100 100 100 100 100 100 100 100 100 100 100 100 100 100 100
100 100 100 100 100 100 100 100 100 100 100 100 100 100 100 100 100 100 100 100 100 100 100 100 100 100 100 100 100 100 100 100 100 100 100 100 100 100 100 100 100 100 100
100 100 100 100 100 100 100 100 100 100 100 100 100 100 100 100 100 100 100 100 100 100 100 100 100 100 100 100 100 100 100 100 100 100 100 100 100 100 100 100 100 100 100
100 100 100 100 100 100 100 100 100 100 100 100 100 100 100 100 100 100 100 100 100 100 100 100 100 100 100 100 100 100 100 100 100 100 100 100 100 100 100 100 100 100 100
100 100 100 100 100 100 100 100 100 100 100 100 100 100 100 100 100 100 100 100 100 100 100 100 100 100 100 100 100 100 100 100 100 100 100 100 100 100 100 100 100 100 100
100 100 100 100 100 100 100 100 100 100 100 100 100 100 100 100 100 100 100 100 100 100 100 100 100 100 100 100 100 100 100 100 100 100 100 100 100 100 100 100 100 100 100
100 100 100 100 100 100 100 100 100 100 100 100 100 100 100 100 100 100 99 100 100 100 90 91 100 93 100 100 100 100 100 100 100 100 100 100 100 100 100 100 100 100 100
100 100 100 100 100 100 100 100 100 83 100 100 100 100 100 100 100 99 100 100 97 98 88 84 72 50 23 45 100 100 100 100 100 100 100 100 100 100 100 100 100 100 100
91 97 100 100 100 99 95 85 74 69 75 100 100 100 100 100 100 100 100 95 72 85 86 95 100 100 90 90 91 98 100 100 100 100 100 100 100 100 100 100 100 100 100
66 72 92 95 62 88 71 47 64 75 98 100 100 100 100 100 100 100 100 100 100 100 100 100 100 100 93 85 97 100 100 90 87 100 94 100 100 100 100 100 100 100 100